Yamatsumi-I

operational
NORAD ID: 64340 Int'l Des: 2025-125 Owner: QPS Country: J
LEOCIRCULAR

Yamatsumi-Iについて

説明を読み込み中...

リアルタイム位置

3D地球を読み込み中...

次回通過

高度履歴

Altitude vs Time

uPlot chart will show altitude changes over time

軌道要素

1 64340U 25125A 25278.05523038 .00008863 00000-0 74737-3 0 9998
2 64340 42.0083 155.2848 0009277 287.0769 72.9039 14.98247274 17302
Epoch: Oct 5, 2025 • Age: 10 hours

現在のステータス

高度 570.1 km
速度 7.58 km/s
衛星直下点 5.67°N, 19.44°W
打ち上げ日 Jun 11, 2025
運用期間 0.3 years
タイプ other

技術仕様

分類 Payload
質量 120.00 kg
乾燥質量 100.00 kg
総質量 120.00 kg
長さ 0.60 m
直径 0.80 m
スパン 3.60 m
形状 Hex Cyl + 2 Pan + Dish
製造者 QPS
バスタイプ QSAT
フェーズステータス In Orbit
所有者/国 QPS/J

大規模コンステレーション

Loading constellations...